Location: McFarlands Corners
(41.4117°N, 81.3382°W)
Time: 18:32:10
(UTC+00:00)

Vanguard 1 Rocket - Pass Details

Date: 17 February 2026
Orbit: 653 x 4214 km, 34.3° (Epoch: 8 March)

Event Time Altitude Azimuth Distance (km) Brightness Sun altitude
Rises 02:03:53 0° 282° (WNW) 7,216 13.0 -34.8°
Reaches altitude 10° 02:09:14 10° 273° (W) 6,611 12.5 -35.7°
Maximum altitude 02:27:22 30° 222° (SW) 5,804 11.5 -38.9°
Drops below altitude 10° 02:47:02 10° 171° (S) 7,031 11.6 -42.3°
Enters shadow 02:47:43 - 170° (S) 7,100 11.6 -42.4°
Sets 02:53:12 0° 162° (SSE) 7,700 - -43.4°
